timestamp,surface_pressure_avg,surface_temp_avg,battery_voltage,lat,long
2018-06-02 00:00:00+00:00,328.623,1.52,13.13,47.84626,-54.09684
2018-06-02 00:10:00+00:00,329.1914,1.6,13.05,47.84626,-54.09684
2018-06-02 00:20:00+00:00,335.223,1.57,13.13,47.84626,-54.09684
2018-06-02 00:30:00+00:00,344.8629,1.59,13.13,47.84626,-54.09684
2018-06-02 00:40:00+00:00,343.8813,1.62,13.13,47.84626,-54.09684
2018-06-02 00:50:00+00:00,347.1813,1.69,13.13,47.84626,-54.09684
2018-06-02 01:00:00+00:00,354.5912,1.7,13.05,47.84626,-54.09684
2018-06-02 01:10:00+00:00,357.6313,1.7,12.97,47.84626,-54.09684
2018-06-02 01:20:00+00:00,355.3713,1.7,13.05,47.84626,-54.09684
2018-06-02 01:30:00+00:00,357.0895,1.7,13.05,47.84626,-54.09684
2018-06-02 01:40:00+00:00,357.1281,1.7,13.05,47.84626,-54.09684
2018-06-02 01:50:00+00:00,354.9497,1.6,13.05,47.84626,-54.09684
2018-06-02 02:00:00+00:00,353.1744,1.57,13.05,47.84626,-54.09684
2018-06-02 02:10:00+00:00,354.1229,1.5,12.97,47.84626,-54.09684
2018-06-02 02:20:00+00:00,354.1364,1.5,13.05,47.84626,-54.09684
2018-06-02 02:30:00+00:00,351.5595,1.53,13.05,47.84626,-54.09684
2018-06-02 02:40:00+00:00,349.0347,1.51,13.05,47.84626,-54.09684
2018-06-02 02:50:00+00:00,347.3579,1.54,13.05,47.84626,-54.09684
2018-06-02 03:00:00+00:00,345.243,1.53,12.97,47.84626,-54.09684
2018-06-02 03:10:00+00:00,342.713,1.52,12.97,47.84626,-54.09684
2018-06-02 03:20:00+00:00,338.038,1.54,12.97,47.84626,-54.09684
2018-06-02 03:30:00+00:00,330.5897,1.55,12.97,47.84626,-54.09684
2018-06-02 03:40:00+00:00,326.9496,1.57,13.05,47.84626,-54.09684
2018-06-02 03:50:00+00:00,322.3446,1.59,13.05,47.84626,-54.09684
2018-06-02 04:00:00+00:00,314.2014,1.62,12.97,47.84626,-54.09684
2018-06-02 04:10:00+00:00,304.9631,1.7,12.89,47.84626,-54.09684
2018-06-02 04:20:00+00:00,302.428,1.7,12.97,47.84626,-54.09684
2018-06-02 04:30:00+00:00,293.118,1.79,12.97,47.84626,-54.09684
2018-06-02 04:40:00+00:00,281.508,1.85,12.97,47.84626,-54.09684
2018-06-02 04:50:00+00:00,276.7764,1.9,12.97,47.84626,-54.09684
2018-06-02 05:00:00+00:00,273.8114,1.9,12.97,47.84626,-54.09684
2018-06-02 05:10:00+00:00,261.5914,1.95,12.89,47.84626,-54.09684
2018-06-02 05:20:00+00:00,251.9614,2.0,12.97,47.84626,-54.09684
2018-06-02 05:30:00+00:00,250.0464,2.0,12.97,47.84626,-54.09684
2018-06-02 05:40:00+00:00,245.3797,2.05,12.97,47.84626,-54.09684
2018-06-02 05:50:00+00:00,237.0747,2.11,12.97,47.84626,-54.09684
2018-06-02 06:00:00+00:00,230.2965,2.2,12.89,47.84626,-54.09684
2018-06-02 06:10:00+00:00,225.9248,2.2,12.89,47.84626,-54.09684
2018-06-02 06:20:00+00:00,218.8448,2.11,12.89,47.84626,-54.09684
2018-06-02 06:30:00+00:00,211.3698,2.2,12.97,47.84626,-54.09684
2018-06-02 06:40:00+00:00,207.638,2.1,12.97,47.84626,-54.09684
2018-06-02 06:50:00+00:00,205.3481,2.14,12.97,47.84626,-54.09684
2018-06-02 07:00:00+00:00,200.4564,2.39,12.89,47.84626,-54.09684
2018-06-02 07:10:00+00:00,196.4014,2.54,12.81,47.84626,-54.09684
2018-06-02 07:20:00+00:00,198.2448,2.43,12.89,47.84626,-54.09684
2018-06-02 07:30:00+00:00,199.2848,2.0,12.89,47.84626,-54.09684
2018-06-02 07:40:00+00:00,196.6347,2.35,12.97,47.84626,-54.09684
2018-06-02 07:50:00+00:00,199.6564,2.2,12.97,47.84626,-54.09684
2018-06-02 08:00:00+00:00,204.5182,2.22,12.89,47.84626,-54.09684
2018-06-02 08:10:00+00:00,203.728,2.3,12.81,47.84626,-54.09684
2018-06-02 08:20:00+00:00,206.7614,2.3,12.89,47.84626,-54.09684
2018-06-02 08:30:00+00:00,213.4998,2.2,12.89,47.84626,-54.09684
2018-06-02 08:40:00+00:00,214.5998,2.24,12.97,47.84626,-54.09684
2018-06-02 08:50:00+00:00,215.7481,2.2,12.97,47.84626,-54.09684
2018-06-02 09:00:00+00:00,223.4081,2.19,12.97,47.84626,-54.09684
2018-06-02 09:10:00+00:00,229.4581,2.1,12.89,47.84626,-54.09684
2018-06-02 09:20:00+00:00,230.3648,2.1,12.97,47.84626,-54.09684
2018-06-02 09:30:00+00:00,232.6515,2.1,13.05,47.84626,-54.09684
2018-06-02 09:40:00+00:00,237.4315,2.1,13.13,47.84626,-54.09684
2018-06-02 09:50:00+00:00,238.8331,2.1,13.29,47.84626,-54.09684
2018-06-02 10:00:00+00:00,238.6813,2.12,13.37,47.84626,-54.09684
2018-06-02 10:10:00+00:00,242.1914,2.3,13.53,47.84626,-54.09684
2018-06-02 10:20:00+00:00,243.8632,2.4,14.0,47.84626,-54.09684
2018-06-02 10:30:00+00:00,245.1446,2.49,14.24,47.84626,-54.09684
2018-06-02 10:40:00+00:00,246.0515,2.52,15.27,47.84626,-54.09684
2018-06-02 10:50:00+00:00,251.4148,2.21,15.91,47.84626,-54.09684
2018-06-02 11:00:00+00:00,255.0997,2.1,14.72,47.84626,-54.09684
2018-06-02 11:10:00+00:00,260.9564,2.0,14.64,47.84626,-54.09684
2018-06-02 11:20:00+00:00,267.6281,1.9,15.83,47.84626,-54.09684
2018-06-02 11:30:00+00:00,272.4931,1.86,15.91,47.84626,-54.09684
2018-06-02 11:40:00+00:00,274.6747,1.92,14.64,47.84626,-54.09684
2018-06-02 11:50:00+00:00,281.1597,2.1,14.56,47.84626,-54.09684
2018-06-02 12:00:00+00:00,288.2947,2.18,14.32,47.84626,-54.09684
2018-06-02 12:10:00+00:00,291.5347,2.29,14.32,47.84626,-54.09684
2018-06-02 12:20:00+00:00,294.8264,2.4,14.48,47.84626,-54.09684
2018-06-02 12:30:00+00:00,302.678,2.39,14.56,47.84626,-54.09684
2018-06-02 12:40:00+00:00,308.3245,2.39,14.64,47.84626,-54.09684
2018-06-02 12:50:00+00:00,309.3148,2.3,16.23,47.84626,-54.09684
2018-06-02 13:00:00+00:00,316.0262,2.1,14.96,47.84626,-54.09684
2018-06-02 13:10:00+00:00,322.4147,2.04,14.64,47.84626,-54.09684
2018-06-02 13:20:00+00:00,324.963,2.19,14.64,47.84626,-54.09684
2018-06-02 13:30:00+00:00,324.3098,2.28,14.4,47.84626,-54.09684
2018-06-02 13:40:00+00:00,327.4097,2.3,14.4,47.84626,-54.09684
2018-06-02 13:50:00+00:00,331.333,2.3,14.72,47.84626,-54.09684
2018-06-02 14:00:00+00:00,330.9962,2.3,14.48,47.84626,-54.09684
2018-06-02 14:10:00+00:00,329.9412,2.3,14.4,47.84626,-54.09684
2018-06-02 14:20:00+00:00,331.3279,2.3,15.35,47.84626,-54.09684
2018-06-02 14:30:00+00:00,332.5246,2.3,14.8,47.84626,-54.09684
2018-06-02 14:40:00+00:00,330.2714,2.3,14.88,47.84626,-54.09684
2018-06-02 14:50:00+00:00,327.283,2.35,14.64,47.84626,-54.09684
2018-06-02 15:00:00+00:00,327.7145,2.39,14.64,47.84626,-54.09684
2018-06-02 15:10:00+00:00,326.9114,2.52,14.56,47.84626,-54.09684
2018-06-02 15:20:00+00:00,325.0031,2.4,14.56,47.84626,-54.09684
2018-06-02 15:30:00+00:00,323.2913,2.34,14.32,47.84626,-54.09684
2018-06-02 15:40:00+00:00,322.348,2.35,14.24,47.84626,-54.09684
2018-06-02 15:50:00+00:00,318.9747,2.4,14.24,47.84626,-54.09684
2018-06-02 16:00:00+00:00,313.5614,2.4,14.16,47.84626,-54.09684
2018-06-02 16:10:00+00:00,309.1963,2.41,14.08,47.84626,-54.09684
2018-06-02 16:20:00+00:00,308.2097,2.43,14.16,47.84626,-54.09684
2018-06-02 16:30:00+00:00,302.863,2.5,14.16,47.84626,-54.09684
2018-06-02 16:40:00+00:00,294.8347,2.5,14.16,47.84626,-54.09684
2018-06-02 16:50:00+00:00,286.5264,2.4,14.16,47.84626,-54.09684
2018-06-02 17:00:00+00:00,282.7297,2.4,14.08,47.84626,-54.09684
2018-06-02 17:10:00+00:00,276.793,2.66,14.0,47.84626,-54.09684
2018-06-02 17:20:00+00:00,266.8897,2.6,14.08,47.84626,-54.09684
2018-06-02 17:30:00+00:00,258.9281,2.47,14.16,47.84626,-54.09684
2018-06-02 17:40:00+00:00,256.8864,2.47,14.24,47.84626,-54.09684
2018-06-02 17:50:00+00:00,251.0147,2.51,14.16,47.84626,-54.09684
2018-06-02 18:00:00+00:00,239.7064,3.09,14.24,47.84626,-54.09684
2018-06-02 18:10:00+00:00,234.7448,2.78,14.24,47.84626,-54.09684
2018-06-02 18:20:00+00:00,234.0831,3.04,14.4,47.84626,-54.09684
2018-06-02 18:30:00+00:00,227.2698,3.29,14.32,47.84626,-54.09684
2018-06-02 18:40:00+00:00,218.6532,3.47,14.24,47.84626,-54.09684
2018-06-02 18:50:00+00:00,217.3714,3.4,14.24,47.84626,-54.09684
2018-06-02 19:00:00+00:00,214.0281,3.44,14.16,47.84626,-54.09684
2018-06-02 19:10:00+00:00,208.1315,3.5,14.0,47.84626,-54.09684
2018-06-02 19:20:00+00:00,208.7997,3.56,14.08,47.84626,-54.09684
2018-06-02 19:30:00+00:00,211.5081,3.92,14.16,47.84626,-54.09684
2018-06-02 19:40:00+00:00,208.0531,4.1,14.16,47.84626,-54.09684
2018-06-02 19:50:00+00:00,205.5414,3.66,14.16,47.84626,-54.09684
2018-06-02 20:00:00+00:00,208.5881,3.4,14.08,47.84626,-54.09684
2018-06-02 20:10:00+00:00,209.8464,3.24,14.0,47.84626,-54.09684
2018-06-02 20:20:00+00:00,211.6798,3.3,14.08,47.84626,-54.09684
2018-06-02 20:30:00+00:00,217.1248,3.2,14.08,47.84626,-54.09684
2018-06-02 20:40:00+00:00,222.2181,3.2,14.08,47.84626,-54.09684
2018-06-02 20:50:00+00:00,224.3731,3.22,14.08,47.84626,-54.09684
2018-06-02 21:00:00+00:00,228.5664,3.2,14.0,47.84626,-54.09684
2018-06-02 21:10:00+00:00,234.653,3.2,13.92,47.84626,-54.09684
2018-06-02 21:20:00+00:00,238.5914,3.2,13.92,47.84626,-54.09684
2018-06-02 21:30:00+00:00,242.2347,3.2,13.92,47.84626,-54.09684
2018-06-02 21:40:00+00:00,247.8248,3.2,13.84,47.84626,-54.09684
2018-06-02 21:50:00+00:00,251.4297,3.07,13.76,47.84626,-54.09684
2018-06-02 22:00:00+00:00,254.1797,3.0,13.68,47.84626,-54.09684
2018-06-02 22:10:00+00:00,257.618,3.0,13.53,47.84626,-54.09684
2018-06-02 22:20:00+00:00,262.688,2.9,13.53,47.84626,-54.09684
2018-06-02 22:30:00+00:00,264.9482,2.7,13.44,47.84626,-54.09684
2018-06-02 22:40:00+00:00,268.6131,2.5,13.44,47.84626,-54.09684
2018-06-02 22:50:00+00:00,274.053,2.5,13.44,47.84626,-54.09684
2018-06-02 23:00:00+00:00,279.1747,2.5,13.29,47.84626,-54.09684
2018-06-02 23:10:00+00:00,283.7047,2.4,13.21,47.84626,-54.09684
2018-06-02 23:20:00+00:00,290.6597,2.38,13.21,47.84626,-54.09684
2018-06-02 23:30:00+00:00,296.208,2.3,13.21,47.84626,-54.09684
2018-06-02 23:40:00+00:00,299.3998,2.3,13.21,47.84626,-54.09684
2018-06-02 23:50:00+00:00,304.8146,2.3,13.21,47.84626,-54.09684
